Orbital Elements
Epoch 2011 Dec. 25.0 TT = JDT 2455920.5
T 2011 Dec. 6.85345 TT MPC
q 3.5365518 (2000.0) P Q
z -0.0003975 Peri. 50.73607 -0.40069433 +0.05012044
+/-0.0000059 Node 252.99818 -0.78942146 +0.48791683
e 1.0014059 Incl. 106.93225 +0.46503528 +0.87145000
From 270 observations 2012 Jan. 29-July 23, mean residual 0".5.
|